RH
5 5 6 7 8 7 5 4 3 3 3 4 5 8 17 28 35 36 34 33 39 44 49 53 51 55 65 73 78 75 72 75 74 72 72 72 73 75 75 74 70 67 60 46 39 39 35 31 31 29 25 18 11 10 12 11 9 8 13 18 19 21 19 15 15 15 18 21 20 17 16 17 18 16 17 21 24 28 35 38 37 35 31 28 29 29
5 5 7 9 11 9 7 5 4 4 3 3 4 4 10 23 33 35 30 31 41 48 49 47 46 51 54 59 66 69 73 73 68 67 64 63 67 72 73 72 71 70 67 59 49 41 37 35 34 32 28 22 14 9 11 11 9 8 11 17 23 25 21 15 13 15 19 21 20 17 16 16 17 16 17 20 22 26 34 37 38 38 36 35 36 34
5 5 7 9 12 11 8 6 5 4 4 3 3 3 7 16 29 34 27 29 46 53 50 44 42 46 48 50 56 64 72 70 63 61 57 58 63 67 71 69 71 73 70 69 61 46 40 38 37 34 29 24 17 10 9 11 11 8 8 13 23 28 23 15 13 13 18 21 20 18 16 16 18 18 19 20 20 25 32 37 38 39 39 39 39 37
6 5 7 9 11 11 10 8 6 5 5 4 3 3 5 11 22 33 28 27 47 56 51 45 40 39 42 48 56 61 65 64 60 57 56 59 57 56 66 66 62 64 64 68 66 51 41 39 38 35 31 27 21 14 10 12 12 9 8 8 15 25 24 16 12 13 18 21 20 19 17 17 22 22 21 20 20 24 31 35 37 38 41 44 43 40
7 6 6 9 11 11 11 10 8 6 6 4 4 3 3 7 13 25 27 27 45 58 52 47 42 36 37 43 49 51 52 55 57 58 60 61 57 54 61 63 57 56 57 62 66 56 43 38 37 35 32 29 24 17 11 11 12 10 8 6 7 16 21 15 12 13 17 21 22 21 19 19 23 23 21 19 19 23 30 34 35 37 43 48 47 42
9 7 7 8 10 10 10 12 10 8 7 4 4 4 3 5 7 14 22 27 46 60 53 49 47 41 42 45 43 41 43 49 54 59 61 60 63 67 67 66 65 63 61 62 67 65 50 35 31 33 32 30 26 20 14 10 11 11 8 6 5 9 15 14 12 13 17 21 23 22 19 19 20 19 18 17 17 22 30 34 34 37 42 47 47 42
9 8 8 8 8 9 10 13 13 10 8 5 5 4 3 4 3 7 15 26 45 58 54 51 51 48 51 51 45 43 47 53 58 63 64 63 72 79 73 69 69 71 73 70 68 73 67 44 30 33 35 32 27 22 17 11 10 12 9 6 6 6 10 13 12 12 15 20 23 21 18 17 16 16 16 16 16 21 29 34 35 39 41 42 43 43
9 9 9 8 7 7 8 12 16 13 10 8 6 6 5 4 3 4 9 21 39 52 53 52 50 55 58 49 44 46 47 54 65 69 69 73 82 83 76 70 68 76 87 83 75 78 83 67 44 37 37 33 28 23 19 15 10 11 10 6 6 6 8 10 11 10 14 19 21 19 17 14 14 16 18 17 16 19 28 33 36 40 40 37 39 45
9 10 10 9 7 7 7 12 18 17 13 11 9 8 6 5 5 4 5 16 31 45 53 51 48 57 59 46 42 42 37 44 59 66 69 74 80 81 75 68 67 77 89 89 83 81 85 78 57 44 40 33 28 25 21 17 12 11 10 7 5 6 7 9 9 8 12 19 19 17 15 13 14 18 20 20 17 18 26 32 35 38 38 34 35 43
10 10 10 10 9 8 8 11 16 18 16 15 13 10 9 6 5 4 4 9 22 38 50 50 46 54 59 49 41 34 32 46 59 64 69 69 70 74 69 62 65 77 90 92 89 86 85 80 61 44 40 34 29 26 20 17 14 11 10 8 5 6 7 8 7 7 11 17 18 15 14 14 16 19 22 21 17 17 24 31 33 34 35 32 32 40
11 10 9 9 9 9 9 9 12 17 19 18 16 14 12 9 6 5 4 4 13 30 45 49 44 48 57 53 37 29 35 49 56 60 67 66 67 70 63 56 57 69 83 84 83 87 88 85 68 47 40 37 30 25 21 17 16 13 11 8 6 6 7 7 6 5 9 16 16 13 14 16 18 20 21 20 16 17 23 29 31 31 32 31 31 37
13 11 10 9 8 8 9 9 9 13 16 18 19 17 14 12 8 6 5 4 8 19 38 50 44 40 52 51 34 28 37 45 48 55 66 67 67 68 63 61 62 68 77 75 76 89 91 88 80 59 47 43 33 28 25 20 18 16 13 9 6 6 7 7 6 5 7 13 15 13 14 17 19 19 20 19 16 16 21 27 30 28 27 28 29 34
14 12 11 10 9 8 9 10 9 9 12 16 19 18 16 14 10 8 5 4 4 11 30 46 43 37 43 44 35 32 39 44 47 55 66 68 67 68 66 66 69 72 80 80 81 92 94 93 89 69 55 50 41 35 31 25 20 18 15 11 7 6 7 7 6 6 6 10 13 12 14 18 19 19 18 18 16 16 19 24 27 25 23 23 25 29
17 14 13 11 10 9 9 10 9 8 8 12 16 17 17 14 11 9 7 5 3 8 24 36 37 36 36 34 36 39 40 41 47 58 66 66 68 73 68 63 64 66 73 77 77 87 96 99 93 71 56 54 49 44 39 30 22 19 16 13 9 6 7 7 6 6 5 7 10 10 12 16 19 18 17 16 15 15 17 21 24 24 22 19 21 26
20 16 15 12 11 10 9 9 10 9 9 10 14 17 18 15 12 10 7 6 5 8 19 27 28 32 32 28 34 44 41 36 45 62 67 63 68 76 69 59 58 59 61 64 67 78 90 95 90 71 56 56 55 52 47 37 26 21 18 15 11 7 6 7 6 6 6 6 7 9 10 14 17 17 16 15 15 14 16 19 20 21 20 17 19 23
23 19 17 15 12 11 10 9 9 10 11 12 14 17 19 17 14 13 10 8 7 9 17 21 19 20 21 22 29 39 38 33 44 60 65 62 65 74 69 56 54 55 55 59 64 72 81 86 83 72 60 57 59 60 57 46 34 26 21 17 14 10 6 7 7 6 6 5 6 7 9 12 15 16 15 15 15 15 15 16 18 19 18 17 18 21
25 21 19 17 14 12 11 10 9 10 11 12 12 12 15 17 17 17 16 13 12 14 16 16 15 12 12 15 19 26 29 33 44 53 57 59 61 70 70 56 51 52 52 60 65 68 78 82 78 74 69 60 60 67 67 58 46 34 26 19 15 12 8 7 7 6 6 5 6 7 8 10 12 14 15 15 15 15 15 15 15 16 16 17 17 17
28 24 21 19 16 14 12 11 10 9 11 12 11 11 15 19 20 20 22 21 19 19 18 15 14 12 11 12 13 19 25 34 46 47 47 53 56 67 74 62 52 51 52 61 68 67 74 85 83 79 77 69 63 66 68 65 55 41 32 24 17 14 11 8 6 6 6 5 5 6 7 9 10 12 13 13 13 14 14 14 13 14 16 16 16 14
30 27 24 22 19 16 14 12 11 10 10 11 11 12 18 21 20 20 22 23 22 21 20 18 16 14 13 12 14 19 23 32 42 41 41 50 52 61 78 74 60 55 54 59 68 67 70 86 94 89 83 78 71 67 63 59 53 45 39 32 22 16 12 9 7 6 6 5 5 6 7 9 9 10 11 12 13 13 14 14 13 13 15 15 14 13
33 30 27 25 22 19 17 14 12 11 9 10 11 12 16 20 21 21 21 22 25 25 22 19 17 15 13 12 14 19 22 27 34 33 35 42 40 47 72 79 66 61 57 53 61 69 70 82 99 97 88 83 80 76 68 59 53 49 43 36 28 20 14 11 8 6 6 5 5 6 6 8 8 9 9 10 12 13 13 13 12 13 13 13 13 11
34 33 31 29 26 23 21 18 14 13 11 10 10 11 12 16 20 23 24 25 27 28 26 23 19 15 12 10 11 16 21 25 28 28 28 30 25 30 53 67 62 59 56 51 59 74 77 81 96 100 92 85 85 85 78 68 60 52 45 40 33 23 16 14 12 8 7 6 6 6 6 7 7 7 8 9 11 12 13 12 11 12 12 12 11 10
39 38 35 34 32 28 26 23 19 16 14 11 10 10 10 11 14 18 22 24 24 25 26 26 23 19 14 10 9 11 17 23 26 26 25 24 20 19 30 44 50 52 51 45 57 83 91 87 93 100 95 88 86 87 86 80 69 55 45 42 42 33 22 17 15 12 9 6 6 6 6 7 6 6 7 7 9 11 12 12 11 11 10 10 10 9
43 45 41 39 38 35 31 29 26 21 17 14 12 11 11 10 10 12 15 17 19 21 21 21 23 23 18 13 11 11 13 18 24 26 24 23 21 16 18 27 37 46 45 33 43 80 100 95 94 99 95 89 86 87 90 87 78 65 51 47 52 46 33 26 25 22 14 8 7 6 5 7 6 6 7 6 8 9 10 12 11 10 10 9 9 9
37 47 51 47 42 41 38 35 33 28 22 18 15 13 13 12 10 10 11 12 15 17 15 16 19 19 17 16 15 13 13 15 20 24 24 22 20 18 16 20 25 34 37 24 27 65 97 100 96 96 91 88 86 86 90 91 88 81 70 62 60 52 46 45 40 30 16 9 9 6 4 6 6 5 7 6 6 8 9 11 11 10 10 8 8 8
34 43 53 55 49 46 45 40 38 35 29 24 21 17 15 15 13 11 11 12 15 16 14 14 15 13 14 17 16 14 14 15 16 20 23 22 21 19 16 17 18 22 25 18 17 46 83 98 99 96 89 85 84 82 85 91 92 88 82 77 69 60 58 59 53 40 22 10 10 7 4 6 6 5 6 6 6 7 7 9 10 10 10 8 8 8
37 39 44 51 53 51 47 44 41 40 37 33 28 23 20 18 17 16 14 14 16 16 15 14 14 15 16 18 18 16 13 12 12 14 19 21 21 20 18 17 16 15 17 16 13 26 53 76 93 100 93 85 83 80 80 86 91 91 88 85 78 67 60 58 55 49 32 14 10 9 5 5 5 5 6 5 6 6 6 8 8 9 10 9 8 7
36 36 34 38 45 47 46 45 45 45 44 43 40 34 29 24 22 21 22 21 19 17 16 14 15 18 19 18 19 20 17 14 12 10 12 16 18 20 20 19 17 15 14 15 14 16 25 42 70 94 98 88 82 80 79 81 85 90 92 90 84 74 65 58 55 56 48 28 13 9 7 6 5 5 6 5 6 6 5 7 7 8 9 9 8 7
36 36 32 30 31 34 37 41 46 47 48 50 49 45 40 34 29 27 28 27 24 22 20 16 16 19 20 17 17 18 18 16 14 11 10 11 13 15 17 17 15 14 13 13 14 15 16 21 42 74 93 90 82 78 77 77 78 82 87 91 91 83 72 63 56 56 54 36 16 8 8 7 5 5 5 5 5 6 6 6 6 7 8 9 8 8
37 37 35 31 29 27 27 31 38 44 49 54 55 51 47 42 39 36 34 32 30 29 24 18 19 22 21 18 17 16 16 15 13 12 10 8 8 9 11 12 11 11 12 12 12 13 15 15 25 52 79 86 80 75 74 73 72 73 76 82 91 90 81 70 64 60 52 37 20 11 8 8 7 5 5 5 5 5 5 5 6 7 7 8 8 8
35 36 35 33 33 31 29 29 30 36 45 54 59 59 56 51 47 44 42 39 36 34 30 25 26 28 25 22 21 20 17 15 13 12 11 9 8 8 7 9 10 10 10 11 11 10 12 13 17 34 62 78 76 70 71 72 69 67 68 73 83 92 89 80 73 67 57 45 32 18 9 7 9 7 5 5 5 5 5 5 6 6 6 8 8 8
32 33 33 32 33 33 33 33 32 34 42 51 57 61 63 61 59 56 54 52 47 41 35 31 31 33 33 31 29 27 23 19 17 15 13 11 10 9 7 7 8 9 9 9 10 8 8 10 13 20 40 62 70 65 65 72 71 65 64 68 75 85 92 90 84 76 66 57 46 32 18 10 8 9 9 7 5 5 5 5 5 6 6 7 7 8
33 32 31 30 30 31 32 34 34 35 41 47 51 56 63 68 71 72 71 71 67 58 48 41 36 37 39 37 34 33 30 26 23 19 16 14 12 11 9 7 7 9 9 8 8 8 7 7 10 14 22 38 55 60 60 67 72 67 62 66 73 79 86 91 91 86 77 69 60 49 34 19 10 8 9 9 8 6 5 5 5 5 6 6 6 7
31 31 31 30 30 30 31 33 35 36 37 38 39 43 51 61 70 77 80 83 83 78 68 57 46 41 40 39 38 38 38 36 32 27 22 19 16 14 11 9 8 7 8 8 8 9 10 9 11 16 19 23 35 48 53 58 69 71 63 60 65 72 78 84 88 91 87 80 73 64 53 38 22 11 7 8 9 8 6 5 5 5 5 5 6 6
22 24 25 27 28 28 29 30 33 36 36 33 33 34 38 43 51 60 69 75 80 81 77 67 54 44 40 38 37 37 39 41 40 36 30 24 20 17 15 13 10 8 7 7 9 13 18 21 22 24 26 24 24 33 43 49 60 70 68 60 57 62 70 77 84 90 92 89 83 76 68 56 40 24 13 7 7 8 7 6 5 5 5 5 5 5
15 16 17 19 21 22 24 26 27 29 31 30 31 33 35 37 40 44 50 55 62 67 67 63 55 46 40 35 33 31 33 37 42 42 37 30 25 21 18 16 13 11 9 8 12 21 28 33 37 36 32 30 27 27 32 38 47 60 69 67 59 56 61 70 77 85 92 95 92 84 77 69 59 45 29 14 6 6 7 7 7 6 5 5 5 5
12 12 12 13 14 14 16 18 20 22 24 25 28 30 32 36 40 44 47 48 51 54 55 54 51 46 40 36 32 29 27 30 37 44 44 39 32 26 22 20 18 16 15 12 16 30 39 40 43 45 39 34 34 32 31 32 37 48 61 68 65 59 59 66 72 78 88 97 98 92 85 78 72 64 51 34 18 9 5 6 7 7 6 6 5 5
11 11 11 10 11 11 11 11 12 14 15 17 20 24 27 30 35 41 47 50 52 52 50 49 48 45 42 40 37 34 31 29 31 37 43 44 42 37 29 24 21 23 26 24 24 36 50 51 49 50 47 41 38 37 35 32 32 37 47 57 63 61 60 66 71 74 83 94 98 98 93 85 80 77 69 56 41 27 14 7 5 7 7 7 6 6
10 10 11 10 10 10 10 9 9 10 10 11 12 15 19 22 26 31 37 43 48 53 54 54 54 52 49 47 45 43 41 37 32 30 34 38 41 42 38 31 25 25 32 40 40 43 55 61 59 56 55 51 44 41 40 40 39 38 37 42 52 57 59 68 77 79 82 89 94 97 96 90 84 82 78 70 62 52 36 19 8 5 6 7 7 7
9 8 9 9 10 10 9 9 9 8 9 9 9 9 10 13 16 20 24 28 34 43 51 56 60 61 60 56 53 50 48 47 42 35 32 33 34 35 37 36 31 25 28 42 53 55 59 65 65 62 60 59 56 50 46 45 46 47 42 38 42 47 52 64 78 84 85 88 91 95 97 95 90 84 80 76 73 67 56 38 20 9 5 5 6 7
12 11 10 9 9 9 9 9 9 9 9 9 8 8 8 8 9 11 13 16 20 26 35 43 50 55 59 59 56 53 50 48 48 43 38 36 35 33 32 32 32 28 24 32 48 59 63 65 68 66 63 62 63 60 54 49 47 49 50 46 43 44 46 54 68 79 84 86 87 88 90 92 92 89 84 80 75 71 66 55 36 18 9 6 5 5
13 14 14 14 13 12 11 10 10 10 9 9 9 9 8 8 8 8 8 9 10 13 17 22 28 34 42 47 50 50 48 43 43 43 41 39 38 37 33 29 28 28 25 24 33 49 60 64 67 67 65 64 64 64 62 57 51 48 51 51 50 49 47 49 56 68 76 77 75 74 75 78 82 86 89 87 79 71 67 61 47 28 15 10 7 6
11 12 14 16 16 16 16 15 14 13 12 10 10 9 9 9 8 8 8 7 7 8 8 10 12 15 20 26 32 38 41 38 35 35 35 34 34 35 35 31 26 25 25 23 24 33 46 56 62 66 67 67 65 65 66 64 57 52 51 51 52 54 52 49 50 56 63 66 64 62 64 69 73 77 84 90 88 79 71 66 58 44 28 17 11 8
12 12 13 13 14 16 17 17 17 17 16 14 13 12 11 10 10 9 9 8 7 7 7 7 7 8 9 11 14 18 23 26 26 25 24 23 23 24 26 27 26 23 23 23 22 23 30 41 52 60 64 66 67 67 67 67 63 58 54 52 52 53 54 53 51 52 54 54 52 51 50 54 63 72 82 90 90 87 86 82 74 63 49 35 25 17
17 17 17 16 15 14 15 15 15 16 16 15 15 14 13 12 12 11 11 10 10 9 8 7 7 7 7 7 7 8 9 11 13 14 14 14 13 13 14 16 18 19 19 20 21 21 21 27 38 50 58 62 65 67 67 68 68 64 59 57 54 52 50 49 50 56 58 49 40 38 39 40 45 60 82 92 85 86 96 97 86 75 63 51 42 32
22 22 21 21 21 20 18 17 16 14 15 14 13 14 13 12 12 12 12 12 12 12 11 9 8 8 7 6 7 7 7 7 7 7 8 8 8 8 8 8 9 11 13 14 16 18 19 19 27 41 54 59 61 65 66 66 68 70 68 63 58 52 48 43 42 48 54 48 35 29 35 40 36 39 64 88 88 86 95 99 93 85 74 60 50 45
27 26 26 26 27 27 26 24 20 18 17 16 15 15 15 14 14 14 13 13 13 13 13 12 12 11 9 8 8 7 6 7 6 6 6 6 6 6 6 6 6 6 8 9 11 13 15 16 19 32 49 58 59 59 60 57 58 66 73 72 66 57 49 44 43 43 45 45 39 32 36 48 46 32 39 68 88 90 91 93 93 93 87 73 59 54
33 30 30 30 31 32 32 31 28 26 25 23 23 23 22 21 21 19 16 15 13 13 13 13 13 13 12 12 11 9 8 8 7 7 6 6 6 6 5 5 6 5 6 7 7 8 10 12 14 20 35 51 57 57 54 50 47 52 63 72 75 68 55 46 48 53 52 47 45 43 44 55 61 48 33 44 72 92 94 91 90 92 93 86 71 62
43 39 37 36 36 35 34 35 33 31 30 31 32 30 27 27 27 25 22 20 17 15 14 13 12 13 13 13 12 12 12 11 9 9 8 6 6 6 6 6 6 5 5 5 6 6 6 8 10 11 18 33 48 56 56 51 44 44 52 64 74 76 68 54 47 55 62 58 52 52 53 57 67 65 44 32 49 77 90 90 87 87 92 94 85 73
52 50 47 42 39 38 40 41 37 32 34 38 38 35 33 32 32 30 28 26 24 22 21 18 16 15 13 13 13 12 12 13 12 12 10 9 7 6 6 6 5 5 6 5 5 6 5 5 7 8 9 15 28 44 55 57 51 45 46 54 65 74 79 74 61 56 63 67 62 58 57 58 65 70 61 44 38 52 72 83 84 83 87 94 95 86
62 58 54 46 43 47 53 53 44 40 44 49 46 42 42 42 40 37 35 33 30 28 26 25 23 22 19 16 14 13 12 13 13 13 12 11 9 7 6 6 5 5 5 5 5 5 6 5 5 6 7 8 12 22 36 49 55 53 47 46 52 61 75 86 84 75 72 74 73 67 61 57 58 65 72 67 51 41 47 66 80 82 80 84 91 93
74 65 59 50 49 60 72 71 60 53 57 59 57 54 52 49 46 44 43 40 37 35 33 30 27 24 21 18 16 13 12 11 11 13 13 13 12 11 10 8 7 6 5 5 5 5 5 6 5 4 5 6 6 9 16 25 37 45 46 44 42 45 57 76 91 93 86 81 80 79 75 68 61 59 66 75 74 57 41 49 73 85 80 77 80 86
Wind_Speed
32 33 30 26 25 26 28 29 31 32 33 33 31 30 28 28 28 28 27 26 24 24 25 27 29 28 28 28 26 24 23 22 22 22 22 21 19 17 15 14 13 12 11 9 9 10 11 11 11 11 11 10 10 10 10 10 11 13 16 17 16 15 16 17 17 17 16 15 13 12 12 11 12 13 13 12 11 11 11 10 10 10 10 10 10 9
33 33 29 27 27 29 31 32 33 33 33 33 32 31 31 30 30 30 30 27 26 26 27 29 30 30 30 29 27 24 23 24 24 24 23 22 20 19 17 15 13 13 13 11 10 10 10 11 11 11 12 11 11 10 10 11 11 12 14 16 16 16 16 18 18 18 17 15 12 11 11 10 10 11 12 11 11 11 11 11 10 10 10 10 10 9
33 32 30 30 32 32 33 33 34 34 34 34 33 33 32 32 32 32 31 29 28 27 29 30 30 31 30 30 29 26 25 26 25 24 23 21 20 19 18 17 16 14 15 14 13 12 12 12 13 12 12 12 11 10 10 10 11 11 13 16 17 17 17 17 18 17 16 14 11 10 10 9 9 10 11 12 12 12 12 11 11 11 10 10 10 10
30 31 32 34 34 34 34 34 35 35 35 35 34 34 33 34 35 34 33 31 30 29 29 29 30 30 30 30 29 29 28 27 25 24 22 20 20 20 18 17 18 17 16 15 15 15 14 13 14 13 13 13 12 12 11 11 11 12 13 16 18 18 17 18 17 16 14 12 11 10 10 10 10 10 11 12 13 13 12 12 12 12 11 10 9 10
28 31 34 36 36 36 35 35 36 36 36 35 35 34 34 35 36 36 35 33 31 30 29 29 28 29 29 29 30 31 30 27 25 23 22 21 19 18 16 15 15 14 14 14 15 16 16 15 15 15 14 14 14 13 13 13 12 12 12 14 16 17 17 18 18 16 13 12 11 11 11 12 13 13 14 14 14 14 13 12 12 12 12 10 10 10
31 33 36 38 38 38 36 36 37 37 36 36 35 34 35 36 38 38 36 34 32 31 31 30 29 28 28 29 30 30 28 26 24 23 23 22 19 18 17 16 13 12 11 12 13 14 15 16 16 15 14 15 15 14 14 14 13 12 11 12 15 16 17 18 18 16 15 13 12 13 14 14 15 16 15 15 15 14 13 12 11 11 11 11 10 10
33 35 37 39 39 39 38 38 38 38 37 36 34 34 35 37 39 39 37 36 34 34 33 31 30 29 28 29 29 28 26 25 25 25 25 23 22 21 20 19 16 13 12 12 12 12 13 14 15 14 15 15 16 15 15 14 13 13 12 12 14 16 17 18 18 17 16 15 14 14 15 15 14 13 13 13 14 14 14 13 12 11 11 11 11 11
33 35 37 38 39 40 39 38 38 37 36 34 33 33 35 36 37 38 39 37 37 37 35 33 31 30 30 29 28 26 26 26 27 28 27 25 25 24 22 20 18 15 13 12 13 14 14 14 14 15 16 16 15 15 15 15 15 14 13 13 14 15 17 17 19 19 18 16 16 16 15 14 12 11 10 10 12 13 14 14 13 12 11 11 11 11
34 35 36 37 38 38 38 38 37 36 35 33 32 34 35 35 36 39 40 39 38 38 37 35 33 32 32 30 28 26 25 26 28 28 28 28 28 27 25 22 20 17 15 13 14 16 17 17 17 18 17 16 15 15 16 16 16 15 14 13 14 16 17 18 19 20 19 18 17 16 15 12 10 10 10 10 11 13 14 14 13 12 12 12 12 11
36 36 37 37 37 37 38 38 38 36 35 33 33 34 34 34 36 38 39 40 40 39 38 36 34 34 34 32 29 26 24 25 27 27 27 28 29 29 28 26 24 21 19 17 15 16 18 18 19 19 18 16 14 14 15 15 15 15 14 13 14 17 18 19 21 21 20 19 17 15 13 12 11 12 12 12 12 13 14 14 14 13 12 11 11 11
38 38 38 38 38 37 37 38 38 38 36 35 35 35 35 36 36 37 39 40 42 41 38 37 36 35 35 34 30 27 26 27 27 27 28 28 29 30 29 28 26 25 24 21 19 19 19 18 18 18 17 15 13 13 12 13 15 15 15 14 15 17 19 20 21 22 21 19 17 15 12 12 13 13 13 13 13 14 15 14 14 13 12 11 11 11
39 39 39 39 37 36 36 37 38 40 39 39 39 38 37 38 38 38 39 41 43 42 40 39 38 37 37 35 32 29 28 28 27 27 28 28 29 30 29 27 27 26 26 25 23 23 22 19 18 18 17 14 12 11 11 12 14 16 16 15 15 17 19 21 22 22 22 20 17 14 12 13 14 14 13 13 14 14 14 14 13 12 11 11 11 11
40 40 40 38 36 36 36 37 39 40 41 42 41 41 39 40 40 40 41 42 43 41 41 41 39 39 38 36 33 31 30 29 27 27 29 29 30 31 30 29 28 27 26 26 25 24 22 20 20 19 18 15 13 12 12 13 14 16 17 16 16 18 20 21 22 23 22 20 18 15 13 14 15 14 13 13 13 14 14 14 13 11 11 11 11 11
41 41 41 39 37 37 37 38 38 39 40 42 43 42 41 41 42 42 42 42 41 40 40 41 40 40 39 36 35 34 31 29 28 28 30 30 30 31 31 30 30 29 28 27 25 24 22 22 22 22 21 18 17 16 15 15 15 15 17 17 17 18 20 22 23 23 22 21 18 16 14 14 15 15 14 13 13 14 14 14 13 12 10 10 10 11
41 41 41 40 38 37 38 38 37 37 38 41 42 42 41 41 41 40 40 39 38 39 40 40 40 41 39 38 37 35 32 30 29 29 31 31 31 32 32 31 30 29 28 26 25 23 23 23 23 24 23 22 21 19 18 17 16 16 17 18 18 18 20 22 23 23 23 21 19 16 15 15 15 15 14 13 13 13 14 15 15 13 11 10 10 11
41 41 41 40 39 38 38 38 37 37 39 41 43 44 43 41 40 39 38 36 34 36 38 39 40 41 39 38 37 36 34 32 30 31 31 31 32 33 33 32 30 27 26 25 23 22 22 23 24 24 24 24 23 21 20 19 18 17 17 19 20 20 20 22 24 25 24 23 20 18 16 17 17 16 14 14 14 14 15 16 16 14 12 10 11 12
40 41 41 40 40 39 40 39 38 38 39 41 43 44 42 41 41 40 38 36 35 36 37 39 40 39 38 38 38 38 37 35 33 32 32 32 32 33 34 32 27 23 23 23 22 21 21 22 23 23 23 24 23 22 21 20 20 19 19 19 21 21 21 22 24 25 25 23 21 20 18 18 18 18 16 15 15 15 15 16 16 15 13 13 13 14
39 40 41 41 41 41 41 40 40 40 40 41 41 41 41 42 43 42 41 39 38 38 39 39 39 38 37 37 38 38 37 36 34 34 34 33 32 32 34 31 25 21 20 22 23 22 20 21 24 25 24 25 25 24 24 23 22 21 20 20 21 22 23 23 24 25 25 24 23 22 20 20 21 20 18 16 16 16 15 16 16 16 16 16 15 15
38 39 40 41 42 41 42 41 41 41 42 41 41 41 43 44 44 43 43 42 40 40 40 39 39 38 37 37 36 36 37 36 35 34 34 33 32 32 33 32 27 23 21 21 22 23 22 22 25 27 27 26 27 27 26 25 24 23 21 20 21 23 25 25 25 25 26 26 25 23 22 22 22 22 19 17 16 16 16 16 17 18 18 18 17 16
37 38 39 41 42 42 42 43 43 43 43 43 43 43 44 44 44 44 44 43 42 41 41 39 38 38 38 37 37 36 36 36 36 36 35 34 32 32 33 33 30 26 23 21 22 24 24 23 26 29 29 28 28 28 27 26 25 25 23 22 21 23 25 26 26 25 26 26 26 25 24 24 24 23 21 19 18 17 17 17 18 19 19 19 18 17
37 38 38 39 41 42 43 43 44 44 44 44 44 45 45 45 45 45 45 45 45 44 42 41 39 38 37 37 37 37 36 36 36 36 36 35 33 33 34 34 32 29 26 23 23 24 25 25 27 30 30 29 29 28 28 27 27 27 26 24 23 23 25 27 27 26 27 27 27 26 25 25 25 25 23 21 20 19 19 18 18 19 20 20 19 18
36 37 38 39 40 41 42 43 44 44 44 44 45 45 46 46 46 46 47 48 47 46 45 44 42 40 38 36 36 37 37 36 36 36 36 36 35 34 34 34 33 31 29 26 26 25 26 26 28 30 31 30 30 29 29 29 29 28 28 26 25 24 25 28 29 29 29 29 28 27 27 27 26 25 24 23 22 21 20 19 19 20 20 20 20 20
35 37 38 39 39 40 41 42 43 44 44 45 45 45 46 46 46 47 47 47 47 48 47 45 44 43 41 38 37 37 38 38 37 36 36 36 35 34 34 34 33 33 31 30 29 28 28 28 28 30 31 31 31 30 30 30 30 29 29 28 27 26 26 27 29 31 32 31 30 30 29 29 27 26 25 24 23 23 22 22 21 20 21 21 22 21
32 35 37 39 39 40 41 41 42 43 44 44 45 46 46 46 47 47 47 46 46 47 47 46 46 45 43 41 40 40 39 39 38 38 37 36 34 33 34 34 33 33 33 32 31 31 31 31 31 31 32 32 31 31 31 31 31 30 28 26 26 26 26 27 27 30 33 33 33 32 32 30 29 28 27 26 25 25 25 24 23 22 21 22 22 21
29 32 35 37 39 39 40 41 42 42 43 44 45 45 46 46 46 46 46 46 46 46 46 46 47 45 43 41 42 41 40 40 39 39 38 37 35 34 33 34 33 34 34 33 33 34 35 34 34 33 33 33 32 32 32 31 31 31 28 25 24 24 24 25 25 26 30 33 34 34 33 32 31 29 29 28 27 27 27 26 25 24 23 22 22 22
27 29 32 35 37 39 40 40 41 42 43 43 44 45 46 46 47 47 47 47 47 47 46 47 47 46 44 43 42 42 41 40 40 39 38 37 37 35 35 34 34 35 35 34 34 35 37 37 37 36 35 35 35 33 33 32 32 32 30 28 28 27 26 27 27 25 27 31 34 34 34 33 32 31 31 30 30 29 29 28 27 26 25 24 24 23
28 28 30 33 35 37 39 39 40 40 41 42 43 44 45 46 47 47 47 47 48 47 47 47 47 46 46 45 44 43 43 42 41 39 38 38 38 38 37 37 37 37 37 36 36 37 38 39 40 39 38 37 37 35 34 33 33 33 31 30 30 30 29 29 29 28 26 28 32 35 35 34 33 33 33 33 32 32 31 30 29 28 27 26 26 25
30 30 31 33 34 36 37 39 39 40 41 42 42 43 44 46 47 47 48 48 48 48 48 48 47 47 47 47 46 46 45 44 43 41 40 39 39 39 40 40 39 39 39 38 38 39 40 41 42 42 41 40 39 37 36 34 34 34 34 33 32 31 30 30 30 30 28 27 30 34 36 36 36 35 35 35 34 33 32 31 31 30 29 28 27 26
32 33 33 34 35 36 37 38 40 41 42 42 43 43 44 45 46 47 48 48 48 49 49 48 48 48 47 47 48 47 47 46 45 43 41 40 40 40 41 41 40 40 40 40 41 41 43 44 45 45 45 43 41 40 38 36 35 36 36 35 34 33 33 32 32 32 30 27 27 30 35 38 38 37 37 36 35 34 33 33 32 32 32 30 29 28
33 34 34 35 36 37 38 39 40 41 42 43 44 44 44 45 46 46 47 48 49 49 49 49 49 48 48 48 48 48 48 47 46 44 43 42 41 40 40 41 41 41 41 41 42 44 45 46 47 48 47 46 44 42 40 39 37 37 37 37 37 35 34 34 34 33 32 29 27 28 31 35 38 39 38 37 37 36 35 34 34 33 33 32 31 31
33 34 35 36 37 38 38 39 40 41 42 43 44 44 45 45 46 46 47 47 48 49 49 49 49 49 48 48 49 49 49 48 48 46 44 43 42 41 41 41 41 42 42 41 42 44 46 47 48 49 49 49 47 45 43 41 40 38 38 38 39 38 36 35 35 34 33 31 29 29 29 31 34 38 39 39 38 38 37 36 35 35 34 33 33 32
31 33 34 36 37 38 39 39 40 40 41 42 43 44 45 46 46 47 47 47 47 47 48 48 49 49 49 49 49 50 50 50 49 48 47 45 44 43 43 42 42 42 43 42 42 43 45 47 49 51 51 50 49 47 45 44 42 41 39 39 40 40 39 37 36 36 35 34 32 31 30 29 31 34 37 39 40 39 39 38 37 36 35 34 33 33
27 30 32 34 36 37 39 40 40 41 42 42 43 43 44 45 46 47 48 48 48 48 48 48 48 48 48 49 49 49 49 49 49 49 48 47 45 45 45 44 44 43 44 44 43 44 46 47 49 51 52 51 50 49 48 46 45 43 42 41 41 41 41 40 38 37 37 36 35 33 32 31 30 31 34 37 40 41 41 40 39 38 37 36 35 35
25 26 28 30 33 35 37 39 40 42 43 43 43 43 44 45 46 47 48 49 49 49 49 49 49 48 48 49 49 49 49 49 49 48 48 47 46 45 45 46 46 45 45 45 45 46 47 48 49 50 51 51 51 51 51 49 48 46 45 43 42 42 42 42 41 39 39 38 38 37 35 34 32 31 31 34 37 41 42 41 40 39 39 38 37 36
24 25 26 27 29 31 33 35 38 40 42 42 43 44 45 45 46 47 48 48 49 50 50 50 49 49 49 49 49 50 50 50 49 49 48 48 47 46 45 46 47 47 47 48 47 48 49 50 50 50 50 50 50 51 52 52 51 49 47 46 44 43 43 43 43 42 41 40 40 40 39 36 34 32 31 32 34 37 40 41 41 41 41 40 39 38
24 25 26 27 28 29 30 32 35 36 38 40 42 44 45 46 47 47 48 49 49 49 50 50 50 50 49 50 50 50 50 51 51 50 49 49 48 48 47 47 48 49 50 50 50 50 51 52 51 51 50 50 49 50 52 53 53 52 50 48 46 45 44 45 45 44 44 43 42 42 41 39 37 34 33 32 32 32 35 37 40 41 42 42 41 40
25 26 27 27 28 29 30 31 32 33 34 36 39 41 43 45 47 48 49 49 50 50 50 50 50 50 50 50 51 51 51 52 52 52 51 50 50 50 49 49 49 51 53 54 54 53 53 54 53 53 52 51 51 51 51 52 53 53 53 51 49 47 46 46 46 46 46 45 45 44 43 42 40 37 36 34 32 31 32 33 36 39 41 42 42 41
27 28 28 29 29 30 31 31 32 33 34 34 36 37 40 42 44 46 48 49 50 50 51 51 51 52 52 52 52 52 52 53 54 54 54 53 52 52 52 52 52 53 55 56 57 56 56 56 55 55 54 53 53 53 52 52 53 53 54 53 52 50 49 48 47 47 47 47 47 46 45 44 42 40 39 37 35 33 32 33 34 36 39 41 42 42
26 28 29 30 31 31 32 33 33 34 35 35 35 36 37 39 41 44 46 48 49 50 51 53 53 54 54 54 54 54 54 55 55 56 56 56 55 55 55 55 55 55 56 58 59 59 59 58 57 57 57 56 56 55 55 54 54 53 53 54 53 53 51 50 49 48 48 48 48 47 46 45 44 43 42 40 39 37 35 34 35 35 36 38 40 42
24 26 27 28 30 31 32 33 34 35 36 37 38 38 38 39 40 42 44 45 47 49 52 53 54 55 55 55 55 56 57 57 57 58 58 58 57 57 58 58 58 58 59 60 61 62 61 61 60 59 59 58 58 58 57 57 56 55 54 53 54 54 53 52 51 50 49 48 48 48 47 46 46 45 44 43 42 41 38 37 36 36 36 36 38 39
19 22 24 26 28 29 30 31 32 34 36 37 38 39 40 41 41 42 44 45 46 48 51 52 54 55 56 57 57 57 58 59 59 59 60 60 60 59 60 60 61 61 62 63 64 64 64 63 63 62 61 60 60 60 60 59 58 57 56 55 55 54 54 53 53 53 51 49 48 48 48 48 48 48 47 47 46 45 42 40 38 37 37 36 36 37
12 14 17 21 23 25 28 29 30 31 33 35 36 37 39 41 42 43 45 46 47 49 50 51 53 55 56 57 58 59 59 60 60 60 61 62 62 62 62 62 63 63 64 65 67 68 68 67 66 65 65 64 63 62 62 62 61 60 59 58 57 56 54 54 54 54 53 52 50 49 49 49 50 50 50 51 51 49 46 43 40 37 36 36 35 35
10 11 12 14 16 18 21 24 26 28 30 32 33 34 36 38 40 42 44 46 48 50 51 52 53 55 56 57 58 59 60 61 61 62 62 62 64 64 64 64 65 65 66 67 68 70 71 71 70 69 68 68 67 66 65 65 64 63 62 60 60 58 56 54 54 54 54 54 53 53 53 53 53 52 52 53 52 49 46 44 41 38 37 36 34 34
10 10 11 12 13 15 17 20 22 23 25 27 29 31 32 34 35 37 40 42 44 47 50 52 54 55 56 57 58 60 61 61 62 62 63 63 64 65 65 66 66 67 67 68 69 71 73 74 74 73 73 72 71 70 68 68 67 66 66 64 63 61 59 57 55 55 54 54 54 54 54 56 57 55 54 53 51 48 46 45 43 40 39 37 35 34
13 13 13 13 13 15 16 17 18 20 22 24 26 28 30 31 33 35 37 39 41 43 45 47 50 53 55 57 58 60 61 63 64 64 65 65 65 65 66 66 67 67 68 69 70 72 74 75 76 76 76 76 75 74 72 71 69 68 68 69 67 65 63 60 59 57 56 55 54 54 54 56 59 59 56 53 50 49 48 47 45 43 41 39 37 35
18 18 17 17 17 17 18 18 18 18 19 21 22 24 25 26 28 30 33 37 40 42 43 45 46 48 50 53 56 58 60 62 64 66 67 68 68 68 68 68 68 68 68 69 71 72 74 75 76 78 79 79 78 77 76 75 73 70 70 71 71 69 66 64 62 61 60 58 56 55 55 56 58 60 58 55 51 49 49 49 48 46 44 42 39 37
22 22 21 21 20 21 21 22 21 21 21 21 22 23 23 24 25 26 27 30 34 37 41 43 45 47 47 49 51 53 56 59 61 64 66 69 70 71 72 72 71 71 70 69 70 72 74 75 76 78 80 82 82 81 80 79 78 75 72 72 72 72 70 68 66 65 63 61 59 57 56 56 57 58 59 57 53 50 49 50 49 48 47 45 42 40
24 25 25 24 23 24 25 24 24 25 25 24 24 25 25 26 27 27 28 29 30 31 34 37 41 44 47 49 50 51 52 54 57 59 62 65 68 71 73 75 75 75 74 73 72 72 74 75 76 77 79 81 84 84 83 82 81 80 77 74 73 73 73 72 69 67 66 64 62 60 59 58 58 57 57 58 57 53 50 50 50 49 48 47 45 43
26 27 28 28 28 27 26 26 26 27 27 26 27 27 27 27 28 29 30 31 32 32 33 34 36 38 41 45 49 52 54 54 55 56 58 60 63 67 70 74 77 78 78 77 76 75 75 75 76 76 77 79 82 86 86 85 83 83 81 79 76 74 73 73 72 70 68 67 65 63 61 61 60 58 56 56 57 56 53 52 51 51 50 48 47 46
28 30 30 31 31 29 27 28 30 30 28 28 29 28 28 29 30 30 31 33 34 35 35 36 37 38 39 41 44 48 52 55 57 58 57 57 58 61 64 68 73 77 80 81 81 79 78 77 77 77 77 77 80 83 87 87 86 85 84 83 81 78 75 73 73 72 70 68 67 66 64 61 61 60 58 55 55 56 56 55 54 53 52 50 48 48
30 31 31 32 31 29 28 31 34 33 30 29 29 29 30 31 32 33 33 34 35 36 37 38 39 40 42 43 44 46 49 52 56 59 59 58 57 58 59 62 65 70 76 81 83 84 83 82 80 79 78 78 78 81 84 87 88 88 88 87 86 83 80 77 74 73 72 70 68 68 66 62 60 62 61 58 55 55 56 57 56 55 54 52 50 50
Wind_Direction
215 216 215 213 210 210 210 210 211 211 212 213 210 204 200 200 200 199 197 192 189 195 199 201 200 196 195 194 193 193 190 188 185 181 177 172 168 167 168 170 169 165 161 166 175 176 175 174 171 166 164 164 166 171 177 183 186 185 187 188 189 192 188 183 180 178 178 179 179 175 169 163 156 153 152 152 154 153 151 149 146 144 143 142 141 140
212 213 210 206 206 207 206 206 208 209 211 211 210 204 199 199 201 201 200 193 189 195 200 203 203 199 198 198 198 196 194 195 195 191 187 182 178 175 176 174 168 163 158 159 168 176 174 172 172 170 168 167 169 173 179 184 187 188 190 192 193 196 195 189 184 182 181 180 179 174 169 165 158 153 151 151 155 155 154 151 148 147 145 144 144 142
210 209 206 204 205 206 204 203 205 208 209 209 208 204 199 198 201 203 202 195 191 196 202 203 203 202 200 200 200 199 199 201 201 199 196 193 190 186 180 175 170 169 168 164 165 172 177 176 174 175 173 168 169 173 177 184 189 188 190 195 199 199 199 196 189 184 182 177 173 170 166 161 153 151 154 156 160 161 158 155 151 150 148 147 147 143
209 205 204 205 207 207 204 202 204 207 208 208 207 204 199 198 200 203 203 198 193 196 203 205 204 204 203 201 201 202 204 206 206 204 203 201 200 196 188 182 180 180 177 172 169 171 178 181 180 181 176 170 171 174 176 183 190 190 192 196 201 202 200 199 193 186 182 174 168 166 164 159 154 158 164 165 166 166 163 158 154 152 150 150 150 144
204 204 204 206 208 208 205 203 204 207 208 207 206 204 200 198 201 204 204 200 194 196 203 205 205 206 205 203 204 205 208 209 208 206 205 206 205 199 192 186 187 188 184 181 177 174 176 182 186 186 180 175 177 179 180 183 187 191 196 198 202 203 201 199 195 187 183 177 169 168 169 168 168 171 173 170 168 167 164 160 158 155 151 153 153 146
200 201 204 206 208 208 206 204 205 207 208 208 206 204 202 200 203 206 205 201 195 196 202 203 203 204 204 203 206 207 207 207 207 205 207 207 200 191 185 180 180 186 190 189 186 183 183 187 191 190 186 183 182 184 186 186 184 188 195 197 200 203 200 199 196 188 185 182 177 177 178 180 181 178 174 168 164 164 163 162 161 158 155 157 157 149
200 199 202 205 208 208 206 205 206 207 208 208 206 205 205 204 205 207 207 202 196 197 200 200 199 200 200 203 206 205 203 201 201 202 205 203 194 188 185 179 176 180 189 192 189 188 191 194 194 192 191 192 189 187 188 187 184 185 189 192 196 201 199 196 195 191 187 185 186 188 189 190 188 180 171 165 162 164 165 163 163 162 161 163 161 153
200 200 202 205 207 208 207 206 206 207 207 207 206 207 208 208 207 209 209 204 199 199 199 198 198 197 198 205 207 203 201 199 198 200 199 195 190 188 186 182 178 178 184 191 188 186 188 190 193 195 197 199 195 190 190 189 187 186 188 188 190 196 197 195 194 192 189 190 192 194 196 195 187 177 169 166 167 169 166 164 167 167 164 169 167 158
200 200 202 204 207 208 207 207 207 207 206 205 207 209 210 210 209 209 210 207 202 201 199 198 197 197 199 205 206 204 203 202 201 201 198 194 192 190 186 183 180 178 180 186 188 189 189 187 190 196 201 203 198 192 192 193 191 188 187 187 187 191 194 193 193 192 190 193 196 199 201 193 177 170 166 167 174 176 170 168 172 171 169 174 172 163
200 200 200 203 205 206 207 207 207 206 204 204 207 210 210 211 211 210 209 208 206 203 200 199 199 198 201 205 205 204 205 205 204 203 200 199 197 194 191 187 181 177 178 182 189 194 195 194 194 197 200 201 197 195 196 195 193 189 187 188 189 190 191 191 192 192 191 196 200 201 198 182 169 170 170 172 178 179 177 175 176 175 173 178 176 168
201 200 201 203 204 204 205 206 207 205 203 203 207 210 210 210 210 209 207 208 208 204 200 201 201 201 202 205 205 202 203 206 206 206 205 202 199 196 195 193 187 182 180 180 187 195 198 199 199 201 202 199 194 193 194 193 192 189 188 190 192 190 190 190 191 192 192 198 203 201 189 173 168 171 174 177 178 181 183 182 181 181 178 180 182 177
202 201 202 204 203 203 204 205 206 205 203 203 206 209 210 211 210 208 206 207 208 204 201 201 203 204 204 205 206 203 203 206 208 208 207 204 200 196 194 192 190 188 185 181 186 193 196 196 195 197 200 198 193 190 186 188 191 191 190 191 192 191 190 190 192 193 194 199 205 202 186 174 172 173 178 181 181 182 185 185 186 187 185 186 189 187
202 203 203 203 202 202 203 204 205 205 204 204 207 208 210 211 211 209 207 207 207 204 201 202 204 206 206 206 207 206 204 205 208 208 207 205 202 197 193 191 190 190 188 184 187 190 193 195 191 189 190 189 188 188 183 185 190 192 192 191 191 192 191 191 193 194 197 200 205 203 191 182 180 178 179 183 183 183 186 187 189 192 194 195 197 196
203 204 204 203 201 201 203 204 205 205 205 206 208 210 211 213 213 211 208 206 205 202 201 202 206 208 208 206 208 209 208 206 207 208 208 207 203 198 195 193 194 195 192 190 190 189 190 193 190 185 183 179 182 186 183 183 189 192 193 192 193 194 193 192 194 196 199 201 204 204 195 190 191 187 182 183 185 185 188 190 191 194 199 203 202 202
205 204 205 204 202 201 203 205 205 205 205 206 209 211 213 215 217 217 214 209 204 201 200 203 207 209 208 207 209 211 212 210 206 206 208 208 204 199 197 197 198 199 200 197 195 191 188 188 188 187 183 179 181 185 183 183 187 192 194 195 196 196 195 195 195 196 200 203 204 204 198 195 200 199 188 183 185 188 192 195 194 195 199 202 201 202
206 205 205 205 203 202 203 205 205 204 203 204 207 210 211 215 219 221 220 215 207 202 202 203 207 210 209 208 209 212 214 214 208 205 206 209 207 203 201 202 200 201 204 204 201 199 193 188 187 189 187 184 183 184 184 184 187 190 194 197 198 198 198 198 197 198 200 202 204 205 201 199 204 206 196 188 186 190 196 198 197 196 195 194 196 202
207 206 205 205 204 204 204 205 205 204 204 204 208 210 211 213 217 219 220 218 210 206 205 205 208 211 209 208 209 211 215 214 209 205 206 208 209 207 206 205 202 202 206 208 206 205 201 197 193 191 191 191 188 185 186 187 188 191 194 197 199 201 201 201 200 201 202 202 203 205 204 202 206 210 204 195 190 190 195 200 199 197 191 188 193 202
207 206 206 205 205 205 205 205 205 205 205 206 208 210 211 213 215 217 218 217 214 211 210 209 210 212 211 210 209 210 212 212 209 207 207 207 208 209 209 208 203 202 206 208 209 208 205 204 203 197 193 195 195 193 192 191 192 194 196 198 199 202 204 203 202 202 204 204 204 204 204 204 207 211 209 201 194 190 194 199 200 196 190 188 193 200
207 207 207 206 206 206 206 206 206 205 205 206 207 208 210 212 215 216 217 218 217 216 215 213 212 213 214 212 211 210 211 211 209 207 207 207 209 210 210 209 206 206 207 208 211 212 209 206 207 205 198 196 199 201 200 199 196 195 198 199 199 201 205 207 205 203 204 206 205 204 204 205 208 210 209 203 197 193 194 198 199 197 192 191 195 199
207 208 207 207 207 207 207 207 207 206 205 206 206 208 210 212 214 216 218 220 221 221 221 220 217 216 216 215 214 212 212 212 211 209 207 208 209 209 209 209 208 209 210 211 213 215 214 209 208 208 204 200 201 204 206 205 201 197 197 198 199 201 205 209 208 206 205 207 207 205 205 206 209 210 208 204 200 197 196 197 198 197 195 194 197 200
208 209 209 208 207 207 207 208 208 207 206 206 207 208 209 211 213 216 218 220 222 224 225 226 225 223 220 219 218 215 213 214 214 213 210 210 211 209 207 208 209 209 210 211 213 217 218 214 210 210 208 206 205 206 209 210 207 203 197 195 198 199 201 206 209 208 207 208 209 208 207 208 210 211 208 205 203 200 199 198 198 199 198 198 199 200
208 209 210 209 209 208 208 208 208 208 207 206 207 209 210 211 213 215 217 219 221 224 226 228 230 230 228 224 223 221 218 217 217 216 214 213 213 210 207 209 210 209 209 210 211 216 219 218 215 212 211 211 210 209 211 213 214 211 203 197 199 201 199 201 205 207 208 208 209 209 209 209 211 213 211 207 205 204 201 200 200 200 199 200 201 202
208 208 210 211 210 210 210 209 209 210 209 207 208 209 210 212 213 215 218 220 222 224 226 227 230 232 231 229 228 227 224 222 220 218 217 216 215 212 210 211 212 210 209 209 209 212 217 219 217 215 213 213 214 213 213 216 218 218 212 204 201 202 201 201 204 206 207 207 208 208 209 209 210 212 212 210 207 207 205 203 202 201 201 202 203 203
211 210 211 212 212 211 211 211 210 211 211 210 209 209 211 212 214 215 218 220 222 224 226 227 229 230 230 229 229 229 228 227 225 223 221 220 218 215 213 213 214 213 211 211 211 210 213 217 218 217 216 215 217 218 218 218 219 220 221 216 208 205 204 204 208 210 209 207 208 209 209 209 209 211 213 212 210 209 209 207 203 201 203 204 204 204
215 215 214 213 213 213 213 213 212 212 212 212 211 211 212 213 214 215 217 219 221 223 225 226 229 231 230 230 231 231 230 229 229 228 226 225 223 221 218 216 216 216 214 214 214 212 212 215 218 219 219 219 219 221 222 223 222 221 222 220 216 215 212 210 214 219 216 212 210 210 210 209 209 210 213 215 213 211 211 210 206 203 203 204 205 205
216 217 217 216 216 215 215 215 214 214 214 215 214 213 213 214 215 216 217 219 221 223 224 225 228 230 231 232 232 233 232 231 230 230 230 230 229 227 225 222 219 218 218 217 217 215 214 215 217 219 220 221 221 221 222 225 226 224 221 217 215 218 218 217 217 221 223 220 216 214 212 211 210 210 213 216 217 215 212 211 210 207 204 204 204 205
215 217 218 219 219 219 218 217 217 216 217 217 217 216 216 216 217 218 218 220 221 222 224 225 227 229 231 232 233 233 234 234 232 231 231 232 232 232 232 230 225 222 221 220 219 218 217 217 217 218 220 222 222 222 222 224 226 226 224 220 218 218 219 220 221 223 225 225 222 219 216 214 212 212 213 216 218 218 216 213 212 211 209 206 205 205
214 216 217 218 220 220 220 219 219 218 218 219 219 219 219 218 219 220 221 221 222 223 224 225 226 229 230 231 232 233 234 235 234 233 233 232 233 234 235 235 232 227 225 224 222 221 220 219 218 218 219 221 223 223 223 223 225 227 227 225 222 220 218 220 223 227 229 229 227 223 220 218 216 215 215 216 219 220 219 217 215 214 213 210 208 206
215 215 216 218 219 220 220 221 220 220 220 220 220 220 220 220 221 221 222 223 224 225 225 226 226 229 230 231 232 233 233 234 234 233 233 233 233 233 234 236 235 232 229 228 226 224 223 222 219 218 218 220 222 224 224 223 224 226 228 227 225 223 221 220 221 225 229 231 230 228 225 222 220 218 218 218 220 221 222 221 220 218 216 214 212 210
218 218 218 219 220 221 221 221 221 221 221 222 222 221 221 221 222 223 223 224 226 226 227 227 228 229 230 231 233 234 234 234 234 232 231 232 233 233 233 234 235 235 233 231 229 227 225 223 222 219 218 220 221 223 225 225 224 225 227 228 226 225 224 223 223 225 227 228 228 229 229 227 226 224 222 221 221 222 223 224 224 222 220 218 216 214
223 222 222 222 223 224 225 224 223 223 223 223 223 223 223 223 223 224 225 226 227 228 228 228 228 230 231 232 234 235 236 236 235 233 230 229 230 231 232 232 233 234 234 232 231 229 226 224 224 222 220 220 221 223 224 225 226 226 227 228 228 226 225 225 226 227 228 228 227 227 229 230 229 228 227 225 224 223 224 226 227 226 225 223 221 219
227 227 225 225 226 226 227 228 227 227 227 226 226 225 225 225 224 225 226 227 228 229 230 229 229 229 231 233 234 235 237 237 237 236 233 230 228 229 230 231 231 233 233 232 230 229 227 225 225 225 223 222 222 223 224 225 227 227 227 228 229 228 226 226 226 227 229 230 230 229 229 230 230 230 230 229 229 227 226 226 228 229 229 228 227 225
229 230 229 228 228 228 228 229 230 230 230 229 229 228 228 228 227 227 227 228 229 230 232 232 231 230 231 232 233 235 237 238 238 238 236 233 230 228 228 229 230 231 232 232 230 228 228 226 225 226 226 225 223 223 224 225 227 228 228 228 229 229 228 227 226 226 228 230 232 232 231 231 231 231 231 231 232 231 229 228 228 229 230 231 230 229
229 230 230 230 230 231 230 230 231 231 232 231 231 230 230 230 230 230 230 231 231 231 233 234 234 233 232 232 232 234 236 237 238 239 238 236 232 229 226 226 227 229 230 231 229 227 226 226 226 227 227 227 226 225 225 226 227 229 229 229 230 230 230 229 227 226 226 229 232 234 234 233 232 232 232 233 233 234 233 232 230 230 231 232 232 232
228 230 231 231 231 232 231 231 231 232 233 234 233 233 232 232 232 233 233 233 233 234 234 235 235 235 235 234 233 233 234 236 238 238 238 237 235 231 228 225 224 225 227 229 228 225 223 224 226 227 229 229 229 228 227 227 228 229 230 230 230 230 231 230 229 228 227 227 231 235 236 236 234 234 234 235 235 236 236 235 234 233 233 233 233 234
229 230 231 232 233 233 232 232 232 232 233 234 235 235 234 234 233 234 234 234 234 235 235 236 236 236 237 236 236 235 234 234 236 237 237 237 237 234 230 226 223 222 223 225 226 224 223 224 226 227 229 231 231 230 230 229 229 230 231 232 231 230 231 231 231 230 229 228 229 233 237 238 237 236 236 237 238 238 238 238 238 237 236 235 235 235
233 232 232 232 233 234 234 234 234 234 233 233 233 234 235 236 235 235 235 235 235 236 236 237 237 237 237 238 238 238 237 235 235 235 236 236 236 235 233 228 224 222 222 223 224 224 224 224 225 227 229 230 232 232 232 231 231 231 232 232 232 231 230 230 231 231 230 229 229 232 235 238 239 238 238 238 239 239 240 240 239 239 238 238 237 237
239 237 236 235 234 234 235 236 236 235 235 234 233 233 234 235 236 237 237 237 236 237 237 237 238 238 238 238 239 239 239 239 237 236 236 235 235 235 234 231 227 224 223 223 223 224 225 225 225 226 228 230 232 233 234 233 233 233 233 233 233 232 231 231 231 232 231 231 231 231 234 236 238 239 239 239 239 239 240 240 240 239 239 239 238 238
243 241 240 239 238 237 237 238 238 238 238 237 236 235 235 235 236 237 238 238 238 238 238 238 239 239 239 239 239 239 240 241 240 239 238 237 236 234 234 233 230 227 225 224 223 224 225 226 226 227 228 229 231 233 234 234 234 234 234 234 234 233 233 232 232 233 233 232 232 233 234 236 238 240 240 240 240 239 239 240 241 240 240 239 238 238
247 245 243 242 241 240 240 240 240 240 241 240 240 239 238 237 237 237 238 239 239 240 240 240 240 240 240 240 240 240 240 240 241 241 240 239 238 236 234 233 232 230 227 225 224 224 224 226 227 228 229 229 230 232 233 234 234 235 235 236 235 235 234 233 233 233 233 234 234 235 235 236 237 239 240 241 241 240 239 239 240 240 240 240 239 239
248 247 246 245 244 243 243 243 242 243 243 242 242 242 242 241 240 239 239 238 238 240 241 242 242 242 242 241 241 241 241 241 241 241 241 241 240 239 237 235 233 231 229 227 225 224 224 225 227 228 229 230 230 231 231 232 234 235 236 236 237 236 235 234 234 233 233 234 235 236 236 236 236 237 238 240 240 239 238 237 237 238 240 240 240 240
251 248 246 245 244 244 244 244 243 244 244 244 244 245 245 245 244 243 242 241 240 240 241 241 243 243 243 243 243 243 242 242 242 242 242 242 241 241 240 238 236 234 231 229 227 225 224 225 226 228 229 230 231 231 231 231 233 235 236 237 237 237 237 236 235 234 234 234 235 237 237 237 236 236 236 238 238 236 236 236 236 238 240 241 241 241
251 250 247 246 245 244 244 243 243 243 245 246 246 247 246 246 247 247 247 246 245 243 242 242 242 243 243 244 245 245 244 244 244 244 243 243 243 242 241 241 239 237 234 232 230 228 225 224 225 227 228 230 230 231 232 232 232 234 235 237 237 238 238 237 235 235 235 234 235 237 238 238 238 237 237 239 239 238 238 239 239 240 241 242 243 242
250 248 247 248 248 247 247 247 246 245 246 246 247 248 248 248 249 249 250 250 249 248 247 245 244 244 243 243 244 245 246 246 246 246 245 245 245 244 243 243 241 240 238 235 233 231 228 225 225 225 227 229 230 230 231 232 233 234 235 236 237 238 238 238 237 235 235 235 235 236 239 239 239 238 238 239 240 240 241 240 240 240 241 241 241 241
253 249 247 246 246 248 249 249 249 248 248 247 248 250 251 252 253 253 252 251 251 250 250 249 248 247 246 245 245 245 245 246 246 246 247 247 246 246 246 245 243 242 241 239 236 234 231 228 226 225 226 227 229 229 230 231 232 234 235 236 237 237 238 238 237 237 236 236 237 238 239 240 240 239 239 239 239 239 240 241 240 239 239 239 239 239
259 258 256 253 252 252 252 251 249 248 247 248 248 250 252 254 255 256 256 254 253 252 251 251 251 250 249 248 247 246 246 246 246 246 246 246 247 247 247 247 246 244 242 241 239 238 235 231 228 226 226 226 228 229 229 230 232 233 234 236 237 237 237 237 238 238 238 238 239 240 241 241 240 239 238 238 239 239 239 241 241 239 238 237 238 238
261 261 261 259 258 258 257 254 252 251 250 249 250 253 255 258 259 260 260 259 258 257 255 254 253 253 252 251 250 249 248 247 247 246 246 246 246 247 247 247 247 246 244 242 241 240 238 235 232 229 227 227 227 228 228 230 231 232 233 235 236 237 238 238 237 238 238 238 238 240 242 242 242 240 238 237 238 238 238 239 240 240 238 237 237 237
264 263 262 261 258 258 258 257 257 255 254 254 254 255 257 260 261 261 261 262 262 262 261 260 258 257 256 254 253 251 250 249 248 248 247 247 247 247 246 247 247 247 246 245 243 241 240 239 236 233 230 229 229 228 227 228 230 232 232 233 234 236 238 239 239 238 238 238 238 239 241 243 243 242 240 237 236 237 237 238 239 240 239 237 235 235
267 265 263 261 260 259 258 259 260 260 259 258 257 257 258 260 262 262 261 261 262 263 264 265 264 263 261 259 257 255 252 251 250 249 249 248 248 248 247 247 247 247 247 246 245 243 242 240 239 237 234 232 231 230 229 228 229 231 232 232 233 235 237 239 240 240 239 239 239 239 240 241 243 243 241 238 236 236 236 237 239 240 240 239 236 234
266 264 263 263 263 263 261 261 262 263 262 259 258 260 263 265 265 265 264 263 263 264 265 266 266 266 266 265 263 260 257 254 252 251 250 249 249 249 249 248 247 247 246 246 246 245 244 242 240 239 237 235 233 232 231 229 229 229 231 232 232 233 235 237 239 241 241 240 240 240 240 240 241 242 241 238 235 235 235 236 238 240 241 241 239 237
266 264 262 262 263 265 265 263 262 261 259 259 261 263 266 268 269 268 267 266 265 266 266 267 268 269 269 269 268 265 262 259 256 253 251 250 250 250 250 250 249 248 247 246 246 245 245 244 242 240 239 237 236 234 233 232 231 230 231 232 233 233 233 235 236 239 241 242 241 241 241 241 240 239 239 238 235 234 234 233 234 237 239 240 241 240